Regional Weather Roundup
Issued by NWS

Home | Current Version | Previous Version | Graphics & Text | Print | Product List | Glossary On
Versions: 1 2 3 4 5 6 7 8 9 10 11 12 13 14 15 16 17 18 19 20 21 22 23 24 25 26 27 28 29 30 31 32 33 34 35 36 37 38 39 40 41 42 43 44 45 46 47 48 49 50
983
ASUS43 KIND 211309
RWRIN

WEATHER ROUNDUP FOR INDIANA
NATIONAL WEATHER SERVICE INDIANAPOLIS IN
900 AM EDT THU MAY 21 2015

NOTE: "FAIR" INDICATES FEW OR NO CLOUDS BELOW 12,000 FEET WITH NO
SIGNIFICANT WEATHER AND/OR OBSTRUCTIONS TO VISIBILITY.

* - STATION DOES NOT REPORT WEATHER SUCH AS PRECIPITATION OR FOG.

+ - STATION NOT QUALITY CONTROLLED BY THE NATIONAL WEATHER SERVICE.
    USE DATA WITH CAUTION...ESPECIALLY DEWPOINT AND RELATIVE
    HUMIDITY OBSERVATIONS.

INZ001>003-010>013-019-020-211400-
NORTHWEST INDIANA

CITY           SKY/WX    TMP DP  RH WIND       PRES   REMARKS
GARY /AIRPORT/ CLOUDY    50  39  66 W10       30.12S
KNOX *+        CLOUDY    45  39  81 W6        30.11S
LA PORTE +     CLOUDY    49  43  79 W8        30.11S
MICHIGAN CITY+ CLOUDY    46  43  87 W5        30.11S
MONTICELLO +   CLOUDY    45  40  81 NW6       30.12S
RENSSELAER +   CLOUDY    46  43  87 W6        30.13S
VALPARAISO     CLOUDY    48  41  76 W8        30.12R

$$

LMZ046-743>745-211400-
SOUTHERN LAKE MICHIGAN

STATION/POSITION TIME  TEMP    WIND        PRES    WAVE
                       AIR SEA DIR/SP/G            HT
                 (UTC) (F)     (DEG/KT/KT) (MB)    (FT)
BURNS HARBOR     1300   49     280/ 12/ 14 1020.0S
MICHIGAN CITY    1300   47     250/ 13/ 15   N/A
5NW MICH CITY    1300   47 50  290/ 10/ 14   N/A     1

$$

INZ004-005-014>016-021>024-211400-
NORTH CENTRAL INDIANA

CITY           SKY/WX    TMP DP  RH WIND       PRES   REMARKS
ELKHART        CLOUDY    46  39  76 W6        30.09S
GOSHEN         CLOUDY    46  39  76 NW7       30.09R
LOGANSPORT +   DRIZZLE   45  36  70 NW6       30.12R
PERU/GRISSOM   LGT RAIN  46  39  75 NW6       30.10R
ROCHESTER +    CLOUDY    48  41  76 NW6       30.11R
SOUTH BEND     CLOUDY    48  42  80 W8        30.10S
WARSAW +       CLOUDY    45  37  76 NW7       30.09S

$$

INZ006>009-017-018-025>027-211400-
NORTHEAST INDIANA

CITY           SKY/WX    TMP DP  RH WIND       PRES   REMARKS
ANGOLA *+      CLOUDY    46  39  76 NW6       30.07S
AUBURN +       CLOUDY    46  37  71 NW5       30.08S
FORT WAYNE     CLOUDY    50  40  68 N8        30.09R
HUNTINGTON +   CLOUDY    48  38  66 NW5       30.09R

$$

INZ028-029-035-036-043>045-051>053-211400-
WEST CENTRAL INDIANA

CITY           SKY/WX    TMP DP  RH WIND       PRES   REMARKS
CRAWFORDSVL +  CLOUDY    43  37  81 NW8       30.13R
GREENCASTLE +  CLOUDY    45  39  81 NW6       30.12R HAZE
LAFAYETTE      LGT RAIN  44  39  82 NW3       30.13R
TERRE HAUTE    CLOUDY    47  42  83 N10       30.14R

$$

INZ030>032-037>040-046>048-054>057-064-065-211400-
CENTRAL INDIANA

CITY           SKY/WX    TMP DP  RH WIND       PRES   REMARKS
CP ATTERBURY + CLOUDY    50  43  76 N7        30.10R
COLUMBUS       CLOUDY    48  43  81 NW9       30.09R
FISHERS *+     CLOUDY    46  45  93 N6        30.10R
FRANKFORT +    CLOUDY    46  40  81 NW6       30.14R
GREENWOOD *+   CLOUDY    50  39  66 N7        30.10R
INDIANAPOLIS   CLOUDY    48  43  82 NW12      30.09R
-EAGLE CREEK   CLOUDY    47  43  86 N9        30.10R
KOKOMO *+        N/A     46  37  71 NW7       30.11R
MARION +       CLOUDY    46  40  81 N7        30.11R
MT COMFORT *+  CLOUDY    48  43  81 N7        30.10R
SHELBYVILLE    CLOUDY    51  41  68 N9        30.08R
ZIONSVILLE +   CLOUDY    46  42  84 N8        30.11R

$$

INZ033-034-041-042-049-050-058-059-211400-
EAST CENTRAL INDIANA

CITY           SKY/WX    TMP DP  RH WIND       PRES   REMARKS
MUNCIE         CLOUDY    48  43  82 N7        30.08R

$$

INZ060-061-067>069-081>083-085>088-211400-
SOUTHWEST INDIANA

CITY           SKY/WX    TMP DP  RH WIND       PRES   REMARKS
EVANSVILLE     CLOUDY    50  45  83 NW8       30.14R HAZE
HUNTINGBURG *+ CLOUDY    50  45  81 NW12      30.12S
WASHINGTON +   CLOUDY    47  44  87 NW12      30.12S FOG

$$

INZ062-063-066-070>080-084-089>092-211400-
SOUTH CENTRAL AND SOUTHEAST INDIANA

CITY           SKY/WX    TMP DP  RH WIND       PRES   REMARKS
BLOOMINGTON    CLOUDY    48  44  86 VRB3      30.10S
MADISON *+     CLOUDY    50  45  81 NW6       30.08S
NORTH VERNON + CLOUDY    50  45  81 N8        30.08R
SEYMOUR +      CLOUDY    52  43  71 N9        30.08R

$$




USA.gov is the U.S. government's official web portal to all federal, state and local government web resources and services.